Time,TemperatureF,DewpointF,PressureIn,WindDirection,WindDirectionDegrees,WindSpeedMPH,WindSpeedGustMPH,Humidity,HourlyPrecipIn,Conditions,Clouds,dailyrainin,SoftwareType,DateUTC
2013-04-23 00:00:00,42.2,37.7,30.50,East,90,5.0,13.0,84,0.00,BKN,,0.00,WeatherDisplay:10.37,2013-04-23 04:00:00,
2013-04-23 00:10:00,42.2,37.7,30.49,East,85,3.0,12.0,84,0.00,BKN,,0.00,WeatherDisplay:10.37,2013-04-23 04:10:00,
2013-04-23 00:20:00,42.0,37.5,30.49,East,89,6.0,12.0,84,0.00,BKN,,0.00,WeatherDisplay:10.37,2013-04-23 04:20:00,
2013-04-23 00:30:00,41.9,37.2,30.49,East,91,2.0,13.0,83,0.00,BKN,,0.00,WeatherDisplay:10.37,2013-04-23 04:30:00,
2013-04-23 00:40:00,41.8,37.0,30.49,East,93,5.0,9.0,83,0.00,BKN,,0.00,WeatherDisplay:10.37,2013-04-23 04:40:00,
2013-04-23 00:50:00,41.7,36.9,30.49,East,100,6.0,13.0,83,0.00,BKN,,0.00,WeatherDisplay:10.37,2013-04-23 04:50:00,
2013-04-23 01:00:00,41.5,36.7,30.48,East,84,2.0,14.0,83,0.00,BKN,,0.00,WeatherDisplay:10.37,2013-04-23 05:00:00,
2013-04-23 01:10:00,41.5,36.7,30.48,ESE,108,6.0,12.0,83,0.00,BKN,,0.00,WeatherDisplay:10.37,2013-04-23 05:10:00,
2013-04-23 01:20:00,41.4,36.6,30.48,East,83,2.0,12.0,83,0.00,BKN,,0.00,WeatherDisplay:10.37,2013-04-23 05:20:00,
2013-04-23 01:30:00,41.2,36.1,30.47,East,92,3.0,9.0,82,0.00,BKN,,0.00,WeatherDisplay:10.37,2013-04-23 05:30:00,
2013-04-23 01:40:00,41.2,36.1,30.47,East,96,1.0,6.0,82,0.00,BKN,,0.00,WeatherDisplay:10.37,2013-04-23 05:40:00,
2013-04-23 01:50:00,41.0,35.9,30.47,East,87,2.0,6.0,82,0.00,BKN,,0.00,WeatherDisplay:10.37,2013-04-23 05:50:00,
2013-04-23 02:00:00,40.7,35.3,30.46,East,97,3.0,9.0,81,0.00,BKN,,0.00,WeatherDisplay:10.37,2013-04-23 06:00:00,
2013-04-23 02:10:00,40.5,34.8,30.46,East,91,2.0,9.0,80,0.00,BKN,,0.00,WeatherDisplay:10.37,2013-04-23 06:10:00,
2013-04-23 02:20:00,40.1,34.1,30.45,East,79,2.0,7.0,79,0.00,BKN,,0.00,WeatherDisplay:10.37,2013-04-23 06:20:00,
2013-04-23 02:30:00,39.9,33.6,30.45,East,85,2.0,12.0,78,0.00,BKN,,0.00,WeatherDisplay:10.37,2013-04-23 06:30:00,
2013-04-23 02:40:00,39.7,33.4,30.44,ENE,63,3.0,6.0,78,0.00,BKN,,0.00,WeatherDisplay:10.37,2013-04-23 06:40:00,
2013-04-23 02:50:00,39.5,33.2,30.44,ENE,68,2.0,6.0,78,0.00,BKN,,0.00,WeatherDisplay:10.37,2013-04-23 06:50:00,
2013-04-23 03:00:00,39.3,33.0,30.43,NE,47,5.0,10.0,78,0.00,BKN,,0.00,WeatherDisplay:10.37,2013-04-23 07:00:00,
2013-04-23 03:10:00,39.2,33.2,30.43,ENE,58,3.0,8.0,79,0.00,SCT,,0.00,WeatherDisplay:10.37,2013-04-23 07:10:00,
2013-04-23 03:20:00,38.9,32.9,30.43,ENE,67,1.0,6.0,79,0.00,SCT,,0.00,WeatherDisplay:10.37,2013-04-23 07:20:00,
2013-04-23 03:30:00,38.6,32.9,30.42,ENE,71,2.0,6.0,80,0.00,SCT,,0.00,WeatherDisplay:10.37,2013-04-23 07:30:00,
2013-04-23 03:40:00,38.3,33.0,30.42,NE,48,2.0,6.0,81,0.00,SCT,,0.00,WeatherDisplay:10.37,2013-04-23 07:40:00,
2013-04-23 03:50:00,38.1,32.8,30.42,ENE,71,3.0,8.0,81,0.00,SCT,,0.00,WeatherDisplay:10.37,2013-04-23 07:50:00,
2013-04-23 04:00:00,37.9,32.6,30.42,ENE,62,2.0,7.0,81,0.00,SCT,,0.00,WeatherDisplay:10.37,2013-04-23 08:00:00,
2013-04-23 04:10:00,37.7,32.4,30.42,NE,50,3.0,7.0,81,0.00,FEW,,0.00,WeatherDisplay:10.37,2013-04-23 08:10:00,
2013-04-23 04:20:00,37.6,32.3,30.42,ENE,70,2.0,7.0,81,0.00,FEW,,0.00,WeatherDisplay:10.37,2013-04-23 08:20:00,
2013-04-23 04:30:00,37.5,32.2,30.42,NE,50,1.0,6.0,81,0.00,FEW,,0.00,WeatherDisplay:10.37,2013-04-23 08:30:00,
2013-04-23 04:40:00,37.4,32.1,30.41,ENE,61,0.0,6.0,81,0.00,FEW,,0.00,WeatherDisplay:10.37,2013-04-23 08:40:00,
2013-04-23 04:50:00,37.5,32.2,30.41,North,8,0.0,5.0,81,0.00,FEW,,0.00,WeatherDisplay:10.37,2013-04-23 08:50:00,
2013-04-23 05:00:00,37.5,32.2,30.41,NNE,32,0.0,6.0,81,0.00,FEW,,0.00,WeatherDisplay:10.37,2013-04-23 09:00:00,
2013-04-23 05:10:00,37.3,32.0,30.41,NNE,27,2.0,6.0,81,0.00,OVC,,0.00,WeatherDisplay:10.37,2013-04-23 09:10:00,
2013-04-23 05:20:00,37.4,32.4,30.40,NNE,26,2.0,5.0,82,0.00,OVC,,0.00,WeatherDisplay:10.37,2013-04-23 09:20:00,
2013-04-23 05:30:00,37.6,32.6,30.41,NE,45,0.0,3.0,82,0.00,OVC,,0.00,WeatherDisplay:10.37,2013-04-23 09:30:00,
2013-04-23 05:40:00,37.8,32.5,30.41,NNE,20,2.0,6.0,81,0.00,OVC,,0.00,WeatherDisplay:10.37,2013-04-23 09:40:00,
2013-04-23 05:50:00,38.0,32.7,30.40,NNE,31,0.0,5.0,81,0.00,OVC,,0.00,WeatherDisplay:10.37,2013-04-23 09:50:00,
2013-04-23 06:00:00,38.1,32.8,30.40,NNE,15,0.0,4.0,81,0.00,OVC,,0.00,WeatherDisplay:10.37,2013-04-23 10:00:00,
2013-04-23 06:10:00,38.3,33.0,30.40,NNE,15,0.0,4.0,81,0.00,OVC,,0.00,WeatherDisplay:10.37,2013-04-23 10:10:00,
2013-04-23 06:20:00,38.4,33.1,30.40,NNE,24,1.0,8.0,81,0.00,OVC,,0.00,WeatherDisplay:10.37,2013-04-23 10:20:00,
2013-04-23 06:30:00,38.5,32.9,30.40,North,11,2.0,5.0,80,0.00,OVC,,0.00,WeatherDisplay:10.37,2013-04-23 10:30:00,
2013-04-23 06:40:00,38.6,33.0,30.40,NNE,33,3.0,6.0,80,0.00,OVC,,0.00,WeatherDisplay:10.37,2013-04-23 10:40:00,
2013-04-23 06:50:00,38.7,33.4,30.40,NE,42,0.0,5.0,81,0.00,OVC,,0.00,WeatherDisplay:10.37,2013-04-23 10:50:00,
2013-04-23 07:00:00,38.9,33.2,30.40,NNE,21,2.0,6.0,80,0.00,OVC,,0.00,WeatherDisplay:10.37,2013-04-23 11:00:00,
2013-04-23 07:10:00,38.9,33.3,30.40,NE,40,0.0,4.0,80,0.00,OVC,,0.00,WeatherDisplay:10.37,2013-04-23 11:10:00,
2013-04-23 07:20:00,39.0,33.4,30.40,NNE,28,2.0,7.0,80,0.00,OVC,,0.00,WeatherDisplay:10.37,2013-04-23 11:20:00,
2013-04-23 07:30:00,39.1,33.5,30.40,NNE,17,0.0,6.0,80,0.00,OVC,,0.00,WeatherDisplay:10.37,2013-04-23 11:30:00,
2013-04-23 07:40:00,39.3,34.0,30.39,NE,40,1.0,8.0,81,0.00,OVC,,0.00,WeatherDisplay:10.37,2013-04-23 11:40:00,
2013-04-23 07:50:00,39.3,34.0,30.39,NNE,17,1.0,7.0,81,0.00,OVC,,0.00,WeatherDisplay:10.37,2013-04-23 11:50:00,
2013-04-23 08:00:00,39.5,34.5,30.39,NNE,31,3.0,5.0,82,0.00,OVC,,0.00,WeatherDisplay:10.37,2013-04-23 12:00:00,
2013-04-23 08:10:00,39.7,34.7,30.38,NNE,13,1.0,7.0,82,0.00,OVC,,0.00,WeatherDisplay:10.37,2013-04-23 12:10:00,
2013-04-23 08:20:00,39.9,34.9,30.38,North,7,0.0,6.0,82,0.00,OVC,,0.00,WeatherDisplay:10.37,2013-04-23 12:20:00,
2013-04-23 08:30:00,40.2,35.1,30.38,NE,40,3.0,7.0,82,0.00,OVC,,0.00,WeatherDisplay:10.37,2013-04-23 12:30:00,
2013-04-23 08:40:00,40.4,35.4,30.38,NNE,14,2.0,7.0,82,0.00,OVC,,0.00,WeatherDisplay:10.37,2013-04-23 12:40:00,
2013-04-23 08:50:00,40.8,35.7,30.38,NE,37,3.0,7.0,82,0.00,OVC,,0.00,WeatherDisplay:10.37,2013-04-23 12:50:00,
2013-04-23 09:00:00,41.1,36.0,30.37,NE,46,3.0,8.0,82,0.00,OVC,,0.00,WeatherDisplay:10.37,2013-04-23 13:00:00,
2013-04-23 09:10:00,41.3,36.2,30.37,NNE,19,3.0,7.0,82,0.00,OVC,,0.00,WeatherDisplay:10.37,2013-04-23 13:10:00,
2013-04-23 09:20:00,41.5,36.8,30.37,NNE,16,1.0,5.0,83,0.00,OVC,,0.00,WeatherDisplay:10.37,2013-04-23 13:20:00,
2013-04-23 09:30:00,41.8,36.7,30.37,North,8,1.0,5.0,82,0.00,OVC,,0.00,WeatherDisplay:10.37,2013-04-23 13:30:00,
2013-04-23 09:40:00,41.8,36.7,30.37,NNE,33,2.0,9.0,82,0.00,OVC,,0.00,WeatherDisplay:10.37,2013-04-23 13:40:00,
2013-04-23 09:50:00,41.8,36.7,30.37,North,1,2.0,6.0,82,0.00,OVC,,0.00,WeatherDisplay:10.37,2013-04-23 13:50:00,
2013-04-23 10:00:00,41.9,37.4,30.37,ENE,59,3.0,7.0,84,0.00,OVC,,0.00,WeatherDisplay:10.37,2013-04-23 14:00:00,
2013-04-23 10:10:00,41.9,37.4,30.37,NNE,24,3.0,7.0,84,0.00,OVC,,0.00,WeatherDisplay:10.37,2013-04-23 14:10:00,
2013-04-23 10:20:00,41.9,37.4,30.36,NNE,18,2.0,6.0,84,0.00,OVC,,0.00,WeatherDisplay:10.37,2013-04-23 14:20:00,
2013-04-23 10:30:00,41.7,37.5,30.36,North,352,1.0,7.0,85,0.00,OVC,,0.00,WeatherDisplay:10.37,2013-04-23 14:30:00,
2013-04-23 10:40:00,41.8,37.9,30.36,North,354,2.0,6.0,86,0.00,OVC,,0.00,WeatherDisplay:10.37,2013-04-23 14:40:00,
2013-04-23 10:50:00,41.7,38.4,30.35,NNE,32,1.0,6.0,88,0.00,OVC,,0.00,WeatherDisplay:10.37,2013-04-23 14:50:00,
2013-04-23 11:00:00,41.6,38.9,30.35,NNE,24,2.0,5.0,90,0.00,OVC,,0.00,WeatherDisplay:10.37,2013-04-23 15:00:00,
2013-04-23 11:10:00,41.6,39.2,30.35,NNE,29,1.0,7.0,91,0.00,-DZ,,0.00,WeatherDisplay:10.37,2013-04-23 15:10:00,
2013-04-23 11:20:00,41.6,39.2,30.35,NE,56,1.0,6.0,91,0.00,-DZ,,0.00,WeatherDisplay:10.37,2013-04-23 15:20:00,
2013-04-23 11:30:00,41.7,39.3,30.34,North,352,2.0,6.0,91,0.00,-DZ,,0.00,WeatherDisplay:10.37,2013-04-23 15:30:00,
2013-04-23 11:40:00,41.8,39.4,30.34,North,355,1.0,6.0,91,0.00,-DZ,,0.00,WeatherDisplay:10.37,2013-04-23 15:40:00,
2013-04-23 11:50:00,42.3,39.6,30.33,NNE,16,1.0,5.0,90,0.00,-DZ,,0.00,WeatherDisplay:10.37,2013-04-23 15:50:00,
2013-04-23 12:00:00,42.6,39.8,30.33,North,357,2.0,6.0,90,0.00,-DZ,,0.00,WeatherDisplay:10.37,2013-04-23 16:00:00,
2013-04-23 12:10:00,42.7,39.7,30.32,North,354,2.0,7.0,89,0.00,OVC,,0.00,WeatherDisplay:10.37,2013-04-23 16:10:00,
2013-04-23 12:20:00,43.2,40.2,30.32,NNE,29,2.0,8.0,89,0.00,OVC,,0.00,WeatherDisplay:10.37,2013-04-23 16:20:00,
2013-04-23 12:30:00,43.6,40.0,30.32,NE,34,1.0,6.0,87,0.00,OVC,,0.00,WeatherDisplay:10.37,2013-04-23 16:30:00,
2013-04-23 12:40:00,43.8,40.2,30.31,North,353,1.0,6.0,87,0.00,OVC,,0.00,WeatherDisplay:10.37,2013-04-23 16:40:00,
2013-04-23 12:50:00,44.2,40.6,30.30,NNE,21,6.0,8.0,87,0.00,OVC,,0.00,WeatherDisplay:10.37,2013-04-23 16:50:00,
2013-04-23 13:00:00,44.6,40.6,30.30,NE,46,1.0,8.0,86,0.00,OVC,,0.00,WeatherDisplay:10.37,2013-04-23 17:00:00,
2013-04-23 13:10:00,45.1,40.9,30.29,NNE,27,1.0,5.0,85,0.00,OVC,,0.00,WeatherDisplay:10.37,2013-04-23 17:10:00,
2013-04-23 13:20:00,45.3,40.7,30.28,North,10,5.0,7.0,84,0.00,OVC,,0.00,WeatherDisplay:10.37,2013-04-23 17:20:00,
2013-04-23 13:30:00,45.5,41.0,30.27,NNE,17,2.0,8.0,84,0.00,OVC,,0.00,WeatherDisplay:10.37,2013-04-23 17:30:00,
2013-04-23 13:40:00,45.8,40.9,30.27,North,357,1.0,7.0,83,0.00,OVC,,0.00,WeatherDisplay:10.37,2013-04-23 17:40:00,
2013-04-23 13:50:00,46.3,41.7,30.26,NNE,26,1.0,7.0,84,0.00,OVC,,0.00,WeatherDisplay:10.37,2013-04-23 17:50:00,
2013-04-23 14:00:00,46.8,41.6,30.26,NNE,18,2.0,7.0,82,0.00,OVC,,0.00,WeatherDisplay:10.37,2013-04-23 18:00:00,
2013-04-23 14:10:00,47.3,42.1,30.26,North,6,2.0,7.0,82,0.00,OVC,,0.00,WeatherDisplay:10.37,2013-04-23 18:10:00,
2013-04-23 14:20:00,47.5,42.0,30.25,North,357,3.0,7.0,81,0.00,OVC,,0.00,WeatherDisplay:10.37,2013-04-23 18:20:00,
2013-04-23 14:30:00,47.4,41.5,30.25,NNE,17,3.0,7.0,80,0.00,OVC,,0.00,WeatherDisplay:10.37,2013-04-23 18:30:00,
2013-04-23 14:40:00,47.2,41.3,30.25,NNW,347,3.0,6.0,80,0.00,OVC,,0.00,WeatherDisplay:10.37,2013-04-23 18:40:00,
2013-04-23 14:50:00,47.3,41.4,30.24,NNE,26,1.0,8.0,80,0.00,OVC,,0.00,WeatherDisplay:10.37,2013-04-23 18:50:00,
2013-04-23 15:00:00,47.6,42.0,30.24,NNE,20,2.0,8.0,81,0.00,OVC,,0.00,WeatherDisplay:10.37,2013-04-23 19:00:00,
2013-04-23 15:10:00,47.8,41.6,30.24,North,357,2.0,8.0,79,0.00,OVC,,0.00,WeatherDisplay:10.37,2013-04-23 19:10:00,
2013-04-23 15:20:00,48.0,41.8,30.23,NNE,31,3.0,8.0,79,0.00,OVC,,0.00,WeatherDisplay:10.37,2013-04-23 19:20:00,
2013-04-23 15:30:00,47.9,41.7,30.23,NNE,24,1.0,7.0,79,0.00,OVC,,0.00,WeatherDisplay:10.37,2013-04-23 19:30:00,
2013-04-23 15:40:00,48.1,41.9,30.23,NNW,345,0.0,9.0,79,0.00,OVC,,0.00,WeatherDisplay:10.37,2013-04-23 19:40:00,
2013-04-23 15:50:00,48.3,42.1,30.23,NNE,15,3.0,7.0,79,0.00,OVC,,0.00,WeatherDisplay:10.37,2013-04-23 19:50:00,
2013-04-23 16:00:00,48.7,42.5,30.22,NNW,345,5.0,12.0,79,0.00,OVC,,0.00,WeatherDisplay:10.37,2013-04-23 20:00:00,
2013-04-23 16:10:00,49.2,42.6,30.22,NNW,345,1.0,10.0,78,0.00,OVC,,0.00,WeatherDisplay:10.37,2013-04-23 20:10:00,
2013-04-23 16:20:00,49.6,43.0,30.22,NNE,21,6.0,12.0,78,0.00,OVC,,0.00,WeatherDisplay:10.37,2013-04-23 20:20:00,
2013-04-23 16:30:00,50.0,43.1,30.22,NE,40,1.0,7.0,77,0.00,OVC,,0.00,WeatherDisplay:10.37,2013-04-23 20:30:00,
2013-04-23 16:40:00,50.2,42.9,30.22,NE,54,2.0,6.0,76,0.00,OVC,,0.00,WeatherDisplay:10.37,2013-04-23 20:40:00,
2013-04-23 16:50:00,50.3,43.0,30.22,North,352,2.0,8.0,76,0.00,OVC,,0.00,WeatherDisplay:10.37,2013-04-23 20:50:00,
2013-04-23 17:00:00,50.5,43.2,30.22,North,9,3.0,9.0,76,0.00,OVC,,0.00,WeatherDisplay:10.37,2013-04-23 21:00:00,
2013-04-23 17:10:00,50.4,42.8,30.21,North,11,2.0,10.0,75,0.00,OVC,,0.00,WeatherDisplay:10.37,2013-04-23 21:10:00,
2013-04-23 17:20:00,50.6,43.3,30.21,NNE,25,2.0,5.0,76,0.00,OVC,,0.00,WeatherDisplay:10.37,2013-04-23 21:20:00,
2013-04-23 17:30:00,51.0,43.7,30.21,NNW,331,3.0,7.0,76,0.00,OVC,,0.00,WeatherDisplay:10.37,2013-04-23 21:30:00,
2013-04-23 17:40:00,51.5,43.5,30.20,North,8,2.0,7.0,74,0.00,OVC,,0.00,WeatherDisplay:10.37,2013-04-23 21:40:00,
2013-04-23 17:50:00,52.3,44.2,30.19,NE,37,5.0,7.0,74,0.00,OVC,,0.00,WeatherDisplay:10.37,2013-04-23 21:50:00,
2013-04-23 18:00:00,52.5,44.1,30.19,NNE,26,3.0,12.0,73,0.00,OVC,,0.00,WeatherDisplay:10.37,2013-04-23 22:00:00,
2013-04-23 18:10:00,52.3,43.9,30.18,NNE,25,3.0,7.0,73,0.00,BKN,,0.00,WeatherDisplay:10.37,2013-04-23 22:10:00,
2013-04-23 18:20:00,52.5,44.1,30.17,North,352,3.0,10.0,73,0.00,BKN,,0.00,WeatherDisplay:10.37,2013-04-23 22:20:00,
2013-04-23 18:30:00,52.4,44.0,30.17,NE,53,1.0,10.0,73,0.00,BKN,,0.00,WeatherDisplay:10.37,2013-04-23 22:30:00,
2013-04-23 18:40:00,52.1,43.7,30.17,NNE,31,5.0,9.0,73,0.00,BKN,,0.00,WeatherDisplay:10.37,2013-04-23 22:40:00,
2013-04-23 18:50:00,51.3,43.3,30.16,NE,48,2.0,13.0,74,0.00,BKN,,0.00,WeatherDisplay:10.37,2013-04-23 22:50:00,
2013-04-23 19:00:00,50.7,43.1,30.17,NNE,29,5.0,10.0,75,0.00,BKN,,0.00,WeatherDisplay:10.37,2013-04-23 23:00:00,
2013-04-23 19:10:00,50.5,43.2,30.17,NW,324,3.0,8.0,76,0.00,BKN,,0.00,WeatherDisplay:10.37,2013-04-23 23:10:00,
2013-04-23 19:20:00,50.2,42.9,30.17,North,355,2.0,8.0,76,0.00,BKN,,0.00,WeatherDisplay:10.37,2013-04-23 23:20:00,
2013-04-23 19:30:00,50.0,43.1,30.17,NNW,336,1.0,7.0,77,0.00,BKN,,0.00,WeatherDisplay:10.37,2013-04-23 23:30:00,
2013-04-23 19:40:00,49.8,42.9,30.17,North,10,0.0,10.0,77,0.00,BKN,,0.00,WeatherDisplay:10.37,2013-04-23 23:40:00,
2013-04-23 19:50:00,49.6,42.7,30.17,NNW,340,3.0,8.0,77,0.00,BKN,,0.00,WeatherDisplay:10.37,2013-04-23 23:50:00,
2013-04-23 20:00:00,49.2,42.6,30.16,NE,37,2.0,10.0,78,0.00,BKN,,0.00,WeatherDisplay:10.37,2013-04-24 00:00:00,
2013-04-23 20:10:00,48.8,42.2,30.16,NNE,12,0.0,6.0,78,0.00,OVC,,0.00,WeatherDisplay:10.37,2013-04-24 00:10:00,
2013-04-23 20:20:00,48.3,42.1,30.15,NNE,14,2.0,4.0,79,0.00,OVC,,0.00,WeatherDisplay:10.37,2013-04-24 00:20:00,
2013-04-23 20:30:00,47.9,42.0,30.14,North,354,1.0,4.0,80,0.00,OVC,,0.00,WeatherDisplay:10.37,2013-04-24 00:30:00,
2013-04-23 20:40:00,47.5,41.6,30.14,North,5,0.0,2.0,80,0.00,OVC,,0.00,WeatherDisplay:10.37,2013-04-24 00:40:00,
2013-04-23 20:50:00,47.1,41.6,30.13,NNW,347,0.0,3.0,81,0.00,OVC,,0.00,WeatherDisplay:10.37,2013-04-24 00:50:00,
2013-04-23 21:00:00,46.8,41.6,30.13,North,358,0.0,5.0,82,0.00,OVC,,0.00,WeatherDisplay:10.37,2013-04-24 01:00:00,
2013-04-23 21:10:00,46.6,41.4,30.13,NNE,22,2.0,7.0,82,0.00,FEW,,0.00,WeatherDisplay:10.37,2013-04-24 01:10:00,
2013-04-23 21:20:00,46.4,41.2,30.13,NNW,328,3.0,7.0,82,0.00,FEW,,0.00,WeatherDisplay:10.37,2013-04-24 01:20:00,
2013-04-23 21:30:00,46.3,41.1,30.13,North,354,3.0,8.0,82,0.00,FEW,,0.00,WeatherDisplay:10.37,2013-04-24 01:30:00,
2013-04-23 21:40:00,46.1,41.2,30.13,NNE,16,0.0,8.0,83,0.00,FEW,,0.00,WeatherDisplay:10.37,2013-04-24 01:40:00,
2013-04-23 21:50:00,45.8,40.9,30.13,NNW,348,2.0,7.0,83,0.00,FEW,,0.00,WeatherDisplay:10.37,2013-04-24 01:50:00,
2013-04-23 22:00:00,45.6,40.7,30.13,North,358,2.0,9.0,83,0.00,FEW,,0.00,WeatherDisplay:10.37,2013-04-24 02:00:00,
2013-04-23 22:10:00,45.4,40.5,30.13,North,2,1.0,8.0,83,0.00,CLR,,0.00,WeatherDisplay:10.37,2013-04-24 02:10:00,
2013-04-23 22:20:00,45.2,40.7,30.12,NNW,345,0.0,10.0,84,0.00,CLR,,0.00,WeatherDisplay:10.37,2013-04-24 02:20:00,
2013-04-23 22:30:00,45.0,40.5,30.12,North,355,1.0,6.0,84,0.00,CLR,,0.00,WeatherDisplay:10.37,2013-04-24 02:30:00,
2013-04-23 22:40:00,44.9,40.4,30.12,NNW,342,2.0,8.0,84,0.00,CLR,,0.00,WeatherDisplay:10.37,2013-04-24 02:40:00,
2013-04-23 22:50:00,44.7,40.5,30.12,NW,321,1.0,7.0,85,0.00,CLR,,0.00,WeatherDisplay:10.37,2013-04-24 02:50:00,
2013-04-23 23:00:00,44.5,40.3,30.11,NNW,331,1.0,5.0,85,0.00,CLR,,0.00,WeatherDisplay:10.37,2013-04-24 03:00:00,
2013-04-23 23:10:00,44.2,40.0,30.11,NNW,343,1.0,6.0,85,0.00,CLR,,0.00,WeatherDisplay:10.37,2013-04-24 03:10:00,
2013-04-23 23:20:00,43.9,40.0,30.11,NNW,340,2.0,5.0,86,0.00,CLR,,0.00,WeatherDisplay:10.37,2013-04-24 03:20:00,
2013-04-23 23:30:00,43.8,39.9,30.10,NNW,344,2.0,8.0,86,0.00,CLR,,0.00,WeatherDisplay:10.37,2013-04-24 03:30:00,
2013-04-23 23:40:00,43.8,39.9,30.10,NNW,328,1.0,6.0,86,0.00,CLR,,0.00,WeatherDisplay:10.37,2013-04-24 03:40:00,